{"data":{"norad_id":55469,"epoch":"2026-05-24T23:56:32.742816Z","epoch_age_seconds":75493,"freshness":"FRESH","line1":"1 55469U 23015W   26144.99760119  .00000730  00000+0  36042-4 0  9997","line2":"2 55469  43.0033 257.6575 0001275 273.6064  86.4642 15.27578949182394","mean_motion":15.27578949,"eccentricity":0.0001275,"inclination_deg":43.0033,"raan_deg":257.6575,"arg_perigee_deg":273.6064,"mean_anomaly_deg":86.4642,"bstar":3.6042e-5,"rev_number":18239,"period_min":94.26681357076,"perigee_km":482.17744148506,"apogee_km":483.92704474205,"semimajor_km":6861.1892431136,"source":"CELESTRAK","updated_at":"2026-05-25T13:38:17.806757Z"}}